Dewpoint
25 24 24 26 29 30 31 30 20 16 16 15 12 17 18 32 21 21 27 34 30 27 27 28 31 35 40 44 46 40 45 46 47 48 50 51 51 52 53 54 56 57 58 60 60 61 61 61 62 65 66 66 67 67 68 69 69 70 71 72 72 72 71 71 71 71 71 71 71 71 71 71 70 70 70 70 71 71 71 70 70 70 70 71 72 72 72
24 24 27 31 31 31 29 29 19 16 15 15 14 15 25 27 33 29 30 39 29 27 26 28 35 39 44 47 51 50 45 46 48 47 49 51 51 51 51 53 54 56 58 59 60 61 62 62 63 65 66 66 67 67 67 68 69 70 71 72 72 72 72 72 72 72 72 72 72 71 71 71 71 70 70 70 70 71 71 70 70 70 70 70 71 72 72
23 26 31 30 29 32 29 28 26 17 16 15 15 14 19 32 31 27 36 37 34 30 36 36 45 44 42 45 47 48 47 47 48 46 48 50 50 50 51 52 53 56 57 59 60 61 62 63 63 66 67 67 67 67 68 68 69 70 71 72 72 72 72 72 72 72 72 72 72 71 71 71 71 71 70 70 70 70 70 71 71 70 70 70 70 71 71
23 27 27 31 30 32 29 32 30 20 16 15 15 15 20 27 31 35 39 37 34 37 40 38 38 39 39 39 40 44 48 47 48 47 47 47 49 50 50 51 53 56 58 61 61 62 62 63 64 66 68 68 68 67 68 68 68 70 71 72 72 72 72 72 72 72 72 72 72 71 71 71 71 71 70 70 70 70 70 70 71 71 70 70 70 70 71
23 25 26 31 33 32 31 30 29 30 31 28 18 19 27 30 32 33 36 35 35 34 41 35 37 36 36 35 37 40 44 49 48 48 49 49 49 51 52 53 55 56 58 61 63 63 63 64 65 66 68 68 68 68 69 69 69 70 71 72 72 72 72 73 72 72 72 71 71 71 71 71 71 71 70 70 70 70 69 70 70 71 70 70 70 70 70
24 22 28 37 35 27 28 35 39 40 29 40 45 45 48 50 49 34 35 36 42 38 33 32 36 42 44 49 55 50 44 47 50 53 56 57 54 55 53 53 55 56 59 61 64 66 67 67 66 67 69 69 69 69 69 70 69 70 71 72 72 73 73 73 73 72 72 71 71 71 71 71 71 71 71 70 70 70 70 70 70 70 70 70 70 70 70
24 25 36 38 29 31 39 38 39 41 44 49 49 50 50 50 50 51 45 40 34 41 41 51 55 59 62 63 63 64 65 63 61 63 64 64 62 62 64 65 65 66 67 67 67 68 68 67 68 69 70 70 70 70 70 70 70 70 70 71 72 73 73 73 73 73 72 72 71 71 71 71 71 71 71 71 70 70 70 69 69 69 70 70 70 70 69
26 35 36 30 34 40 40 39 40 42 41 41 48 49 50 51 51 51 49 42 38 46 57 61 62 62 63 63 63 63 63 63 63 63 64 66 68 68 69 68 68 69 69 69 69 69 70 70 69 69 69 70 70 70 71 71 71 70 70 70 71 72 73 73 73 73 73 72 72 71 71 71 70 70 71 71 71 70 70 69 69 69 70 70 70 70 70
26 27 28 32 43 41 41 41 39 40 40 40 44 47 49 51 51 51 51 50 46 49 58 61 61 62 62 62 62 63 62 63 65 65 65 66 67 69 70 70 70 70 70 70 70 70 68 68 69 69 69 70 70 70 70 71 71 71 71 70 70 72 73 73 73 73 73 73 72 72 71 71 70 70 70 71 71 71 70 70 69 69 69 70 71 71 71
30 21 26 36 39 35 40 42 40 40 42 43 42 49 49 52 52 52 52 52 53 49 51 55 57 59 59 59 60 62 62 62 63 66 67 69 70 70 69 69 70 71 71 71 72 71 72 73 73 73 72 70 70 70 70 71 71 71 71 70 71 71 72 73 73 73 73 73 73 72 72 71 71 70 70 70 71 71 70 70 69 69 69 69 70 71 71
21 24 28 31 30 39 42 44 42 41 43 46 45 48 48 51 52 52 52 53 53 53 54 55 56 56 55 55 57 61 64 64 64 65 67 68 69 69 69 69 70 71 71 72 72 72 72 72 72 74 73 72 69 70 71 71 70 70 70 70 71 71 72 72 73 73 73 73 73 73 72 72 71 71 71 71 71 71 71 70 70 69 70 69 69 70 70
24 25 26 29 39 37 41 43 43 42 46 48 45 43 46 51 51 51 52 53 54 54 55 56 56 56 55 57 59 62 63 63 64 65 66 66 66 67 69 70 70 71 71 70 70 71 72 73 74 74 74 74 74 71 70 70 71 70 70 70 71 71 72 73 73 73 73 74 74 73 73 73 72 72 72 71 71 71 71 71 70 70 69 69 69 70 70
24 25 24 36 41 44 45 44 44 44 48 48 43 40 50 52 51 51 52 54 54 55 55 56 56 57 58 60 62 63 63 63 64 65 66 66 66 67 68 70 72 70 70 70 70 70 71 72 73 73 73 72 72 73 73 70 70 70 71 71 71 71 72 73 73 73 73 74 73 73 73 73 73 73 72 72 72 72 71 71 71 71 70 70 70 70 70
20 21 22 25 41 45 46 45 45 49 48 44 44 53 55 51 48 50 51 53 54 55 56 56 56 57 59 60 61 61 62 63 64 65 66 66 66 67 68 71 70 69 69 70 70 70 71 72 72 73 73 72 71 72 71 71 72 73 71 71 72 72 72 73 74 73 73 74 74 74 74 74 74 73 73 73 72 72 72 72 72 72 71 71 70 70 71
27 27 26 33 30 42 46 46 48 50 48 49 54 56 54 46 46 48 50 52 53 55 56 57 57 57 58 59 60 61 62 62 63 64 65 66 66 66 66 67 69 69 69 70 70 70 70 71 71 72 73 74 72 71 70 71 73 74 74 71 72 72 72 73 74 74 74 74 74 75 74 74 74 74 74 74 74 73 73 73 73 72 72 72 72 71 72
31 32 34 35 42 47 48 48 46 52 53 56 56 55 53 46 45 46 48 49 52 54 56 56 57 57 57 58 59 61 62 63 64 64 65 66 66 66 67 68 69 69 69 69 69 69 69 70 70 71 72 72 74 73 70 72 74 76 74 72 72 72 72 73 74 74 74 75 75 75 75 75 75 74 75 75 74 74 74 73 73 73 73 73 72 72 72
39 39 41 38 40 48 52 49 49 53 52 54 56 55 54 50 46 46 45 46 49 53 54 56 57 57 57 58 59 60 61 63 64 64 65 65 66 67 67 68 69 68 68 69 69 69 69 69 68 69 70 71 72 71 71 73 74 74 74 73 72 72 72 73 74 74 75 75 76 76 76 76 75 75 75 75 75 75 74 74 74 74 74 74 73 73 72
40 40 41 40 40 40 41 50 53 52 52 52 56 55 54 54 53 46 45 46 47 49 53 55 56 57 58 58 58 59 61 62 63 64 64 64 65 66 67 68 68 68 68 69 68 68 67 68 68 69 69 70 69 70 72 73 74 74 75 73 73 72 72 73 74 74 75 75 76 76 76 76 76 76 75 75 75 75 75 74 74 74 74 74 73 73 73
33 31 39 35 36 39 38 45 50 48 51 54 54 53 55 51 53 53 48 47 47 48 49 53 56 57 58 58 58 59 60 61 62 62 63 64 65 65 66 67 69 67 68 68 68 67 67 67 68 69 70 70 70 71 71 72 75 75 75 73 74 73 73 73 74 75 75 75 76 76 76 76 76 76 76 76 75 75 75 75 74 74 74 74 74 73 73
30 34 35 36 36 43 37 43 48 47 49 51 54 54 54 51 47 51 53 48 48 48 48 50 56 56 58 58 58 59 59 60 60 61 62 63 64 65 66 67 68 66 67 67 66 67 67 67 68 69 69 69 70 70 71 72 74 74 75 74 73 73 73 74 74 75 75 78 76 76 75 75 75 76 76 76 75 75 75 75 75 74 74 74 74 74 74
34 34 38 37 36 41 38 42 43 46 45 50 49 53 51 51 48 48 49 48 50 48 48 48 54 56 57 59 59 59 59 59 59 60 61 62 63 64 65 66 67 66 67 68 67 66 66 67 67 67 68 69 70 69 70 72 73 73 73 74 73 73 73 74 74 75 75 76 74 70 64 59 55 54 53 59 72 71 65 68 75 75 75 75 74 75 74
31 31 35 37 34 35 37 40 40 42 48 49 50 49 47 46 48 47 48 50 50 48 47 47 48 53 57 58 59 59 59 59 59 59 61 62 63 63 65 66 66 66 68 68 66 66 65 66 67 66 67 67 69 69 71 71 72 72 71 71 71 72 72 73 73 73 72 70 68 66 63 61 58 57 54 47 49 61 62 59 58 65 66 72 70 66 62
30 33 34 39 40 38 38 40 41 41 42 44 49 48 48 48 46 49 48 47 47 47 47 47 47 48 57 57 58 59 59 59 60 60 61 61 62 63 64 64 65 65 66 68 67 67 65 66 66 67 67 68 68 69 71 71 71 71 71 70 70 70 71 71 69 69 68 67 66 65 64 62 62 61 60 56 47 46 51 52 49 47 48 50 53 57 61
35 36 36 40 38 36 37 38 39 40 42 42 43 46 49 51 52 51 47 44 45 46 47 45 46 47 55 58 59 58 58 59 60 61 62 62 62 63 63 64 65 65 65 66 66 66 65 66 66 66 66 67 68 70 71 71 71 70 70 71 70 70 70 69 68 67 66 65 65 64 63 62 62 61 60 59 57 50 46 48 48 47 47 48 48 50 51
36 38 38 38 38 38 39 39 40 41 42 43 44 45 46 49 52 51 49 46 45 46 46 47 46 46 52 58 59 58 58 59 61 63 63 64 63 62 62 63 64 66 65 66 66 66 66 66 66 66 65 66 67 69 70 71 70 69 68 68 69 69 70 69 67 67 65 64 64 63 62 61 61 61 60 59 58 57 56 49 46 47 47 47 47 47 48
39 39 39 39 39 39 40 40 39 39 40 42 44 49 48 50 49 51 50 52 49 48 47 48 47 47 50 58 58 59 59 60 62 63 61 61 62 62 62 63 63 66 66 66 66 66 66 66 65 64 64 65 67 69 71 71 70 70 70 69 69 68 69 68 67 65 65 64 63 61 61 59 58 58 58 58 57 57 57 57 57 54 50 47 46 47 47
41 41 40 39 39 39 39 38 37 39 40 41 41 45 48 46 50 50 48 48 49 50 50 50 50 49 52 58 59 59 59 61 61 61 61 61 62 63 64 64 65 66 67 66 66 67 67 67 66 65 65 66 67 68 69 69 69 69 69 70 70 70 70 69 66 65 64 63 60 59 58 58 57 57 57 58 58 57 56 56 57 58 58 59 54 50 53
43 42 40 38 38 37 38 39 41 43 43 42 43 42 45 47 47 45 45 46 48 48 50 51 51 51 54 56 57 57 58 58 59 60 60 61 62 64 65 66 66 67 66 66 66 67 67 65 65 65 65 67 68 68 68 68 67 67 67 67 67 67 67 67 66 65 63 62 61 60 59 58 57 57 59 59 58 58 58 60 60 59 60 61 60 54 47
45 43 42 41 40 40 40 40 40 40 40 40 43 42 42 43 45 47 46 47 47 48 49 50 50 53 56 57 57 57 57 58 59 60 60 61 63 64 65 66 67 67 66 65 65 65 64 63 63 63 63 64 66 68 67 66 66 66 65 65 65 64 65 66 66 64 64 64 63 62 61 60 60 60 62 62 62 62 62 61 61 62 61 61 61 62 60
47 46 43 42 42 41 40 40 40 40 41 41 41 41 41 41 42 45 48 47 46 47 46 49 50 55 58 58 58 58 59 59 58 58 58 58 59 61 63 65 65 65 64 64 63 63 63 62 61 61 62 63 66 67 65 65 65 65 65 64 64 64 65 65 65 64 64 63 63 63 63 63 63 63 63 63 64 64 63 63 63 62 61 61 62 61 60
47 47 44 43 42 41 40 40 40 41 42 42 41 41 41 42 41 43 45 47 48 47 47 49 53 56 58 58 58 57 57 56 55 55 55 55 56 58 60 61 62 61 62 62 63 63 61 60 59 59 60 63 65 65 64 64 64 64 64 64 64 62 62 62 63 64 64 64 63 63 63 63 64 64 64 63 63 63 63 64 63 63 63 61 61 61 60
45 46 45 43 42 42 41 41 41 42 43 43 42 41 41 41 42 42 44 47 46 47 48 55 56 56 56 57 56 55 54 53 53 53 53 53 54 55 56 58 58 59 59 60 61 61 59 58 58 58 59 63 65 66 65 64 64 63 64 66 63 62 61 61 62 61 62 63 62 62 63 61 61 61 62 61 61 61 62 62 62 62 62 61 60 59 58
44 44 45 44 43 43 42 42 42 42 43 42 42 42 42 43 43 46 46 49 48 49 55 55 56 56 56 55 54 53 52 52 51 51 51 51 52 53 54 55 55 56 57 58 59 59 59 58 58 58 59 62 64 65 64 62 62 61 61 61 60 61 62 59 59 60 61 60 60 59 59 59 59 59 59 60 60 60 59 60 60 60 60 60 59 58 55
44 44 45 48 46 43 43 43 44 44 44 44 43 44 44 45 45 46 47 49 46 49 55 55 55 55 54 52 52 51 51 51 51 51 50 50 51 51 52 53 54 54 55 55 56 57 59 60 60 59 60 62 63 63 61 61 60 60 59 59 59 58 58 58 58 58 58 58 58 58 58 58 57 57 57 57 57 57 57 57 57 57 56 56 57 57 52
43 45 46 47 49 51 52 49 45 45 44 43 43 44 45 46 45 45 49 48 47 53 55 54 54 53 52 51 50 49 49 49 49 50 50 51 50 50 51 52 52 52 53 53 54 55 57 60 61 60 61 62 62 61 60 60 59 58 58 58 58 57 57 58 57 57 56 56 56 55 55 55 55 57 56 55 54 54 54 54 54 54 53 53 54 54 53
44 43 44 45 46 48 49 50 51 51 51 51 51 51 51 49 47 46 46 49 55 54 53 53 52 52 51 50 50 49 49 49 49 49 49 50 50 51 51 51 51 51 51 51 52 54 56 58 61 61 62 60 59 59 59 58 58 57 57 56 56 56 56 55 55 55 55 54 54 54 54 55 55 54 53 53 52 52 52 51 51 51 51 51 52 52 52
44 43 43 44 45 45 46 48 49 49 49 50 50 51 51 52 52 52 53 54 54 53 52 51 50 50 49 50 50 49 49 49 49 49 49 50 50 50 50 51 51 51 51 50 52 54 55 57 59 60 59 60 60 59 60 60 57 56 55 54 54 54 53 53 53 52 52 53 52 52 52 52 50 50 51 50 50 50 50 49 49 49 49 50 50 50 50
44 44 43 43 44 44 45 46 47 48 48 48 49 50 50 49 49 49 49 50 51 52 51 50 50 50 50 50 49 49 48 49 49 48 49 49 49 49 50 50 51 51 51 51 53 54 55 56 58 57 57 56 55 55 56 58 58 54 53 53 53 53 52 52 52 52 52 51 52 50 49 49 48 48 48 48 48 49 48 48 48 48 47 48 48 48 48
43 43 43 43 43 43 43 44 45 46 46 47 47 48 48 48 47 46 46 47 48 50 50 49 49 49 48 48 48 48 49 49 49 48 48 48 49 49 49 50 51 52 53 54 54 54 55 55 56 55 55 55 55 54 56 57 56 53 52 52 52 52 51 51 51 52 51 51 50 49 48 48 48 47 47 46 46 47 48 47 47 47 46 46 46 46 47
43 43 43 43 42 43 43 43 43 44 45 45 46 47 48 48 46 45 45 45 47 49 47 48 47 47 47 47 47 48 48 48 48 48 48 48 48 48 49 49 51 52 53 54 54 54 55 55 54 54 54 54 54 54 55 55 54 54 52 52 51 49 49 50 49 48 48 48 49 49 47 47 46 46 46 45 45 45 45 45 45 45 44 44 45 45 46
43 43 43 42 42 42 42 42 42 42 43 44 44 45 46 47 47 47 48 48 48 49 48 48 46 46 46 46 46 47 48 48 48 48 48 48 47 48 48 48 50 51 52 53 54 54 54 54 53 52 53 54 54 54 53 53 52 50 49 49 48 47 46 47 47 46 46 46 47 45 45 45 45 44 44 43 43 43 43 43 43 43 43 43 43 44 45
45 44 43 42 42 42 42 42 43 42 42 43 44 44 44 45 46 46 47 47 47 48 48 49 49 47 45 46 47 46 45 47 47 47 48 48 48 47 47 48 51 52 52 52 53 52 52 53 53 54 52 53 54 51 51 52 50 48 48 47 47 46 47 44 44 45 45 44 44 43 44 43 42 42 42 41 41 42 41 41 41 41 41 42 42 42 43
47 46 44 43 43 43 42 42 42 42 43 43 44 44 44 44 44 44 46 46 47 47 47 47 48 49 48 46 44 44 44 44 44 45 46 48 49 50 49 49 51 51 51 53 51 51 51 52 52 53 53 53 52 51 51 50 49 48 48 47 46 46 43 41 41 42 42 41 41 42 42 42 41 41 40 40 40 40 40 39 39 40 40 40 40 41 41
47 47 47 46 45 45 44 44 43 43 43 43 44 44 44 44 44 44 44 45 45 46 46 46 46 47 47 48 48 47 46 44 44 44 44 45 47 50 51 51 51 50 50 52 51 50 51 51 52 52 52 51 51 51 50 49 48 46 44 45 42 40 39 39 38 38 38 39 39 39 40 42 40 39 38 37 37 36 37 37 37 37 38 38 39 40 40
48 47 47 46 47 47 47 46 45 45 45 46 45 44 44 45 45 45 44 43 44 46 47 46 47 47 47 47 47 47 48 47 46 44 44 45 46 47 51 52 52 50 49 50 50 48 47 48 49 50 49 49 49 50 48 48 48 48 48 48 44 46 42 40 40 39 38 37 38 37 38 37 37 36 36 37 37 36 35 34 34 34 35 36 37 38 38
48 49 49 48 48 48 48 49 49 49 47 46 46 46 46 45 45 46 47 47 46 46 46 46 46 46 47 47 47 47 47 46 46 46 45 44 46 46 49 51 51 50 48 48 48 46 45 47 47 47 47 47 48 49 48 49 49 46 45 46 45 45 44 41 41 40 39 39 38 37 37 37 37 37 37 37 36 37 37 38 37 34 34 34 35 35 36
48 48 48 48 48 49 50 49 48 48 47 46 46 46 47 47 47 46 46 46 46 46 47 47 47 46 47 47 48 47 47 46 45 46 45 44 45 44 46 47 47 47 49 47 45 44 45 44 46 46 46 45 44 39 40 42 43 44 44 42 44 42 42 40 41 41 42 41 42 42 42 41 38 38 40 38 38 38 38 37 36 36 36 37 36 36 37
47 47 47 48 48 49 50 49 48 47 47 47 47 48 47 47 47 47 47 47 46 46 46 46 47 47 47 46 47 47 46 45 44 44 44 44 45 44 42 40 43 45 45 44 44 45 47 47 47 46 45 44 40 38 39 39 40 39 39 39 39 38 37 37 39 39 40 44 41 40 39 38 38 38 39 38 38 38 38 38 38 39 38 37 37 36 36
47 47 46 46 45 47 46 47 46 45 44 45 44 45 46 47 46 46 45 45 44 45 45 44 43 44 44 48 46 45 43 45 43 42 43 43 42 41 42 45 44 43 43 44 41 42 46 45 45 45 44 42 37 36 37 37 40 41 41 40 39 39 38 38 38 39 40 41 40 41 40 40 39 39 40 41 41 40 40 39 39 39 39 39 39 40 39
47 46 46 45 44 44 44 44 44 42 42 42 40 40 39 40 41 41 43 42 43 45 43 40 39 39 39 40 40 41 40 41 41 40 42 41 40 40 41 41 41 42 42 39 41 40 45 44 45 44 42 37 37 38 38 37 38 38 38 39 39 38 41 40 41 41 40 40 39 40 40 41 40 42 42 41 40 40 40 40 40 41 41 41 40 40 39
45 45 43 45 43 43 42 44 45 46 44 43 42 42 41 40 40 41 41 42 39 38 36 37 37 38 39 38 38 37 38 38 39 41 39 40 40 40 41 41 39 40 39 38 37 36 37 39 39 41 39 40 38 39 39 38 38 39 40 38 38 38 38 40 39 38 38 38 37 37 37 39 39 40 40 42 42 42 42 42 41 40 40 39 39 39 38
42 43 43 42 41 40 39 41 45 43 43 43 41 40 39 39 39 38 38 40 39 36 36 34 33 34 34 36 40 39 38 37 39 38 40 40 38 38 41 39 37 38 35 35 34 35 35 40 43 43 41 37 37 38 42 41 38 37 38 41 41 39 39 38 38 37 37 37 36 36 37 37 36 35 37 38 40 41 41 40 38 38 38 37 37 37 36